Location: Flotzheim
(48.8375°N, 10.8136°E)
Time: 17:30:11
(UTC+00:00)

Meteor 2-10 Rocket - Pass Details

Date: 23 January 2021
Orbit: 733 x 885 km, 81.2° (Epoch: 28 February)

Event Time Altitude Azimuth Distance (km) Brightness Sun altitude
Rises 17:12:09 0° 346° (NNW) 3,402 6.8 -11.7°
Reaches altitude 10° 17:14:38 10° 345° (NNW) 2,441 6.1 -12.1°
Maximum altitude 17:20:08 76° 261° (W) 830 3.8 -13.0°
Drops below altitude 10° 17:25:21 10° 177° (S) 2,321 6.1 -13.8°
Sets 17:27:39 0° 175° (S) 3,223 6.8 -14.2°
